Regional Weather Roundup
Issued by NWS

Home | Current Version | Previous Version | Graphics & Text | Print | Product List | Glossary On
Versions: 1 2 3 4 5 6 7 8 9 10 11 12 13 14 15 16 17 18 19 20 21 22 23 24 25 26 27 28 29 30 31 32 33 34 35 36 37 38 39 40 41 42 43 44 45 46 47 48 49 50
000
ASUS43 KMPX 250201
RWRMN
WEATHER ROUNDUP FOR MINNESOTA
NATIONAL WEATHER SERVICE TWIN CITIES/CHANHASSEN MN
900 PM CDT SUN MAY 24 2015


NOTE: "FAIR" INDICATES FEW OR NO CLOUDS BELOW 12,000 FEET WITH NO
SIGNIFICANT WEATHER AND/OR OBSTRUCTIONS TO VISIBILITY. N/A MEANS
CURRENT SKY AND/OR WEATHER CONDITIONS ARE NOT AVAILABLE.

MNZ060>063-068>070-250300-
   Twin Cities Metro

CITY           SKY/WX    TMP DP  RH WIND       PRES   REMARKS
TWIN CITIES    LGT RAIN  59  58  96 E12       29.83F FOG
ST PAUL        CLOUDY    59  57  93 E8        29.85F
CRYSTAL        LGT RAIN  60  57  89 NE9       29.83F FOG
BLAINE         DRIZZLE   61  61 100 E9        29.85F
LAKEVILLE      DRIZZLE   57  55  94 E7        29.82F
EDEN PRAIRIE   LGT RAIN  59  57  93 E10       29.81F FOG
SOUTH ST PAUL  LGT RAIN  59  58  96 E6        29.84F
LAKE ELMO      DRIZZLE   59  57  94 E8        29.86F
$$
MNZ001>005-007-008-013>017-022>024-027-028-250300-
   Northwest Minnesota

CITY           SKY/WX    TMP DP  RH WIND       PRES   REMARKS
BEMIDJI        CLOUDY    63  49  60 SE5       29.91F
HALLOCK        CLOUDY    72  48  43 SE5       29.89S
ROSEAU         CLOUDY    70  50  49 SW3       29.91S
WARROAD        CLOUDY    66  54  63 CALM      29.91S
THIEF RVR FALL CLOUDY    66  46  48 SE7       29.91F
CROOKSTON      CLOUDY    70  48  46 SE5       29.90F
FOSSTON        CLOUDY    63  46  55 CALM      29.91F
DETROIT LAKES  RAIN      63  54  72 SE5       29.91F
MOORHEAD       CLOUDY    64  55  72 CALM      29.89S
PARK RAPIDS    CLOUDY    64  51  62 SE6       29.91F
MAHNOMEN       FAIR      65  51  61 E6        29.90F
$$
MNZ006-009>011-018-025>026-250300-
   North Central Minnesota

CITY           SKY/WX    TMP DP  RH WIND       PRES   REMARKS
BAUDETTE       CLOUDY    68  50  52 CALM      29.90F
FLAG ISLAND    CLOUDY    66  46  48 CALM      29.89S
INTL FALLS     CLOUDY    60  53  77 CALM      29.90F
WASKISH        CLOUDY    63  57  82 CALM      29.92S
BIG FORK       CLOUDY    63  52  67 CALM      29.93S
LONGVILLE      CLOUDY    63  52  67 SE3       29.92F
GRAND RAPIDS   CLOUDY    61  50  67 SE7       29.93F
CRANE LAKE     CLOUDY    66  48  52 CALM      29.93S
ORR            CLOUDY    64  48  55 CALM      29.91S
COOK           CLOUDY    64  52  63 CALM      29.94S
WALKER         CLOUDY    63  50  63 CALM      29.91F
$$
MNZ012-019>021-037-250300-
   Northeast Minnesota

CITY           SKY/WX    TMP DP  RH WIND       PRES   REMARKS
DULUTH         LGT RAIN  61  55  81 SE7       29.95S
ELY            CLOUDY    64  48  55 CALM      29.94S
HIBBING        CLOUDY    63  50  62 CALM      29.93F
EVELETH        CLOUDY    63  54  72 CALM      29.95S
DULUTH HARBOR  DRIZZLE   63  57  82 CALM      29.94F
TWO HARBORS    CLOUDY    64  52  63 SW6       29.94S
GRAND MARAIS     N/A     48  40  73 SW5       29.93R
G MARAIS ARPRT CLOUDY    59  43  55 SE3       29.98R
$$
MNZ029>031-032-039>041-046>048-054>057-064-250300-
   West Central Minnesota

CITY           SKY/WX    TMP DP  RH WIND       PRES   REMARKS
FERGUS FALLS   DRIZZLE   61  55  82 E6        29.89S
WHEATON        DRIZZLE   55  55 100 NE7       29.88F
MORRIS         DRIZZLE   59  57  94 E12       29.84F
ALEXANDRIA     CLOUDY    58  55  90 E12       29.88F
ELBOW LAKE     DRIZZLE   58  56  94 NE9       29.87F
WADENA         DRIZZLE   57  54  88 NE7       29.89F
GLENWOOD       CLOUDY    57  55  94 E16       29.87F
APPLETON       DRIZZLE   61  57  88 E8        29.83F
BENSON         DRIZZLE   59  55  88 E6        29.84F
ORTONVILLE     DRIZZLE   59  55  88 E6        29.84F
MADISON        CLOUDY    59  57  94 E12       29.83F
WILLMAR        DRIZZLE   61  59  94 E8        29.84F
$$
MNZ033>034-036-042>043-049>051-058-059-250300-
   Central Minnesota

CITY           SKY/WX    TMP DP  RH WIND       PRES   REMARKS
ST CLOUD       LGT RAIN  58  57  97 E8        29.85F
SAUK CENTRE    RAIN      57  56  96 E6        29.86F
PAYNESVILLE    LGT RAIN  55  55 100 N9        29.85F
AITKIN         DRIZZLE   61  54  77 E7        29.90F
PINE RIVER     DRIZZLE   61  54  77 E6        29.95F
BRAINERD       LGT RAIN  59  55  87 NE7       29.90F
STAPLES        LGT RAIN  57  54  88 NE3       29.90F
LONG PRAIRIE   RAIN      55  55 100 NE9       29.88F
LITTLE FALLS   RAIN      55  54  94 E6        29.88F
LITCHFIELD     DRIZZLE   59  59 100 E10       29.83F
BUFFALO        DRIZZLE   58  56  92 NE9       29.85F
MAPLE LAKE     DRIZZLE   59  58  96 E13       29.85F
$$
MNZ037-044-045-052-053-250300-
   East Central Minnesota

CITY           SKY/WX    TMP DP  RH WIND       PRES   REMARKS
PRINCETON      RAIN      61  57  88 E8        29.87F
MORA           DRIZZLE   55  54  94 E5        29.90F
CAMBRIDGE      LGT RAIN  61  54  77 CALM      29.85F
RUSH CITY      LGT RAIN  58  57  96 E3        29.89F
MOOSE LAKE     LGT RAIN  57  55  94 NE3       29.90F
HINCKLEY       DRIZZLE   59  57  94 E6        29.91S
CLOQUET        LGT RAIN  59  55  88 CALM      29.94F
MCGREGOR       CLOUDY    59  55  88 E6        29.92F
$$
MNZ071>073-080-081-089-090-097-098-250300-
   Southwest Minnesota

CITY           SKY/WX    TMP DP  RH WIND       PRES   REMARKS
MONTEVIDEO     RAIN      59  59 100 E10       29.83F
GRANITE FALLS  DRIZZLE   58  57  97 NE8       29.83S
CANBY          DRIZZLE   58  57  96 NE12      29.83F
MARSHALL       CLOUDY    57  54  88 E8        29.80F
REDWOOD FALLS  LGT RAIN  59  58  96 E10       29.79F
OLIVIA         LGT RAIN  57  55  94 E7        29.81S
WINDOM         DRIZZLE   59  57  94 NE5       29.78F
WORTHINGTON    CLOUDY    59  55  88 NE9       29.78S
JACKSON        CLOUDY    61  59  94 NE7       29.77F FOG
TRACY          DRIZZLE   59  59  98 E8        29.80F
SLAYTON        LGT RAIN  58  58 100 CALM      29.80S
$$
MNZ065>067-074>077-082>085-091>093-250300-
   South Central Minnesota

CITY           SKY/WX    TMP DP  RH WIND       PRES   REMARKS
MANKATO        CLOUDY    59  57  94 E10       29.79F
NEW ULM        DRIZZLE   57  57 100 E8        29.79F
ST JAMES       CLOUDY    61  61 100 NE9       29.78F FOG
FAIRMONT       CLOUDY    61  55  82 NE6       29.76F
GLENCOE        DRIZZLE   59  59  99 E8        29.81F
FARIBAULT      DRIZZLE   59  57  94 NE7       29.81F
OWATONNA       DRIZZLE   59  57  94 E8        29.80F
WASECA         DRIZZLE   59  57  94 E9        29.80F
ALBERT LEA     DRIZZLE   63  61  94 SE7       29.78F
$$
MNZ078>079-086>088-094>096-250300-
   Southeast Minnesota

CITY           SKY/WX    TMP DP  RH WIND       PRES   REMARKS
ROCHESTER      CLOUDY    59  58  96 SE13      29.83F FOG
RED WING       HVY RAIN  57  57 100 E7        29.83F
STANTON        DRIZZLE   59  57  92 E12       29.81F
DODGE CENTER   DRZL/FOG  61  59  94 E10       29.81F VSB 1
WINONA         CLOUDY    59  57  94 SE9       29.85F
AUSTIN         DRIZZLE   61  59  94 SE9       29.79F
PRESTON        CLOUDY    58  57  97 SE8       29.84F FOG
$$
ABBREVIATIONS USED IN REMARKS
   TC - TEMPERATURES IN CELSIUS
  WCI - WIND CHILL INDEX
   HX - HEAT INDEX
  VSB - VISIBILITY
$$


USA.gov is the U.S. government's official web portal to all federal, state and local government web resources and services.